Flag for Saint Vincent and Grenadines Weather past 2 weeks in Kingstown, Saint Vincent and Grenadines

Now
84 °F

Passing clouds.


Feels Like: 92 °F
Forecast: 81 / 85 °F
Wind: 13 mph from East

Location: Arnos Vale

Current Time: Aug 22, 2014 at 9:46:05 PM

Latest Report: Aug 22, 2014 at 9:00 PM


Visibility: N/A

Pressure: 29.95 "Hg

Humidity: 74%

Dew point: 75 °F

Location of KingstownLocation

Historic Weather in Kingstown — Graph

°F

Kingstown temperature yesterday

Maximum temperature yesterday: 86 °F (at 10:00 AM)
Minimum temperature yesterday: 79 °F (at 6:00 AM)
Average temperature yesterday: 84 °F

Past Weeks' High & Low Weather Summary

 TemperatureHumidityPressure
High88 °F (Aug 9, 1:00 PM)94% (Aug 7, 9:00 PM)30.09 "Hg (Aug 7, 9:00 PM)
Low75 °F (Aug 8, 1:00 PM)62% (Aug 9, 1:00 PM)29.86 "Hg (Aug 21, 3:00 PM)
Average84 °F77%29.98 "Hg
* Reported Aug 7 8:00 PM — Aug 22 8:00 PM, Kingstown, Weather by CustomWeather, © 2014

Note: Actual official high and low records may vary slightly from our data, if they occured in-between our weather recording intervals... More about our weather records

Advertising

Kingstown weather history for previous 24 hours

 ConditionsComfort  
Time TempWeatherWind HumidityBarometerVisibility
8:00 PM
Aug 22
82 °FPassing clouds.12 mph84%29.95 "HgN/A
7:00 PM84 °FPassing clouds.13 mph79%29.92 "HgN/A
6:00 PM84 °FPassing clouds.13 mph74%29.92 "HgN/A
5:00 PM86 °FScattered clouds.13 mph75%29.89 "HgN/A
4:00 PM86 °FScattered clouds.13 mph70%29.89 "HgN/A
3:00 PM86 °FScattered clouds.12 mph75%29.92 "HgN/A
2:00 PM88 °FScattered clouds.12 mph75%29.92 "HgN/A
1:00 PM86 °FScattered clouds.10 mph75%29.95 "HgN/A
12:00 PM86 °FScattered clouds.12 mph75%29.98 "HgN/A
11:00 AM86 °FBroken clouds.12 mph75%29.98 "HgN/A
10:00 AM86 °FBroken clouds.13 mph75%29.98 "HgN/A
9:00 AM84 °FPartly sunny.12 mph79%29.98 "HgN/A
8:00 AM81 °FBroken clouds.9 mph89%29.95 "HgN/A
7:00 AM81 °FPartly sunny.No wind89%29.95 "HgN/A
6:00 AM79 °FSprinkles. Scattered clouds.12 mph89%29.92 "HgN/A
12:00 AM82 °FPassing clouds.7 mph79%29.92 "HgN/A
11:00 PM
Aug 21
82 °FPassing clouds.9 mph79%29.92 "HgN/A
9:00 PM81 °FPassing clouds.No wind84%29.92 "HgN/A
Weather by CustomWeather, © 2014

See weather overviewHow to use our weather pages